Tracking 30074 objects as of 13-Jan-2025
HD Live streaming from Space Station
objects crossing your sky now

LUCH DEB

Track LUCH DEB now!


NORAD ID: 44582
Int'l Code: 1994-082G
Perigee: 35,614.5 km
Apogee: 35,742.9 km
Inclination: 14.6 °
Period: 1,430.2 minutes
Semi major axis: 42049 km
RCS: Unknown
Launch date: December 16, 1994
Source: Commonwealth of Independent States (former USSR) (CIS)
Launch site: TYURATAM MISSILE AND SPACE COMPLEX (TTMTR)

Note: This is SATELLITE DEBRIS
Your satellite tracking list
Your tracking list is empty




NASA's NSSDC Master Catalog

Two Line Element Set (TLE):
1 44582U 94082G   25011.71176476  .00000003  00000-0  00000-0 0  9997
2 44582  14.6498 358.1018 0015271  90.1208  87.7137  1.00683661 40995
Source of the keplerian elements: AFSPC